Location: Unspecified
(0.0000°N, 0.0000°E)
Time: 03:31:54
(UTC+00:00)

BlueWalker 3 - Pass Details

Date: 09 March 2024
Orbit: 485 x 495 km, 53.2° (Epoch: 17 April)

Event Time Altitude Azimuth Distance (km) Brightness Sun altitude
Rises 19:41:36 0° 338° (NNW) 2,530 5.7 -22.8°
Reaches altitude 10° 19:43:51 10° 347° (NNW) 1,653 4.6 -23.3°
Enters shadow 19:44:21 13° 350° (N) 1,472 4.3 -23.4°
